Regional Weather Roundup
Issued by NWS

Current Version | Previous Version | Text Only | Print | Product List | Glossary On
Versions: 1 2 3 4 5 6 7 8 9 10 11 12 13 14 15 16 17 18 19 20 21 22 23 24 25 26 27 28 29 30 31 32 33 34 35 36 37 38 39 40 41 42 43 44 45 46 47 48 49 50
000
ASUS44 KFWD 300303
RWRTX
NORTH TEXAS HOURLY WEATHER ROUNDUP
NATIONAL WEATHER SERVICE FORT WORTH TX
1000 PM CDT TUE JUL 29 2014

NOTE: "FAIR" INDICATES FEW OR NO CLOUDS BELOW 12,000 FEET WITH NO
SIGNIFICANT WEATHER AND/OR OBSTRUCTIONS TO VISIBILITY.

TXZ118-119-300400-
DALLAS/FORT WORTH METROPLEX

CITY           SKY/WX    TMP DP  RH WIND       PRES   REMARKS
DFW AIRPORT    MOCLDY    77  61  57 S3        30.05S
DALLAS LOVE    MOCLDY    80  65  59 CALM      30.05S
FTW MEACHAM    MOCLDY    78  56  46 SE3       30.06R
DAL-EXECUTIVE  MOCLDY    75  66  73 CALM      30.06R
FTW-ALLIANCE   MOCLDY    73  62  68 SW3       30.06R
FTW-NAS-JRB    MOCLDY    80  54  40 SE3       30.10R
FTW-SPINKS     MOCLDY    75  63  66 CALM      30.09R
ARLINGTON      MOCLDY    74  63  68 CALM      30.06R
GRAND PRAIRIE  MOCLDY    77  62  59 CALM      30.07R
MESQUITE       MOCLDY    74  68  80 SE3       30.06
LANCASTER      MOCLDY    73  65  74 CALM      30.07R
$$

TXZ091>094-102>105-117-120-121-131>134-300400-
NORTH CENTRAL TEXAS

CITY           SKY/WX    TMP DP  RH WIND       PRES   REMARKS
SHRMAN/DENISON CLOUDY    80  63  55 CALM      30.07S
GAINESVILLE    PTCLDY    76  60  57 CALM      30.09R
BOWIE          MOCLDY    70  68  91 CALM      30.08R
BRIDGEPORT     MOCLDY    72  65  80 CALM      30.10R
DECATUR        MOCLDY    73  60  61 SE5       30.08R
DENTON         MOCLDY    74  62  66 CALM      30.06R
MCKINNEY       MOCLDY    80  63  55 CALM      30.06R
GREENVILLE     PTCLDY    79  64  61 CALM      30.07R
ROCKWALL       MOCLDY    76  68  77 CALM      30.05S
TERRELL        MOCLDY    78  66  66 CALM      30.06S
WAXAHACHIE     MOCLDY    74  62  66 CALM      30.08R
CLEBURNE       MOCLDY    77  63  61 E6        30.09R
GRANBURY       MOCLDY    78  64  62 E3        30.09R
$$

TXZ083>090-098>101-113>116-127>130-139>142-154-155-300400-
WESTERN NORTH TEXAS

CITY           SKY/WX    TMP DP  RH WIND       PRES   REMARKS
WICHITA FALLS  MOCLDY    74  66  76 SE3       30.07R
WF-KICKAPOO    MOCLDY    75  65  69 CALM      30.09R
VERNON         CLOUDY    76  66  72 E3        30.08R
ABILENE        CLOUDY    75  66  73 S18       30.08S
ABILENE-DYESS  LGT RAIN  74  69  84 SE20      30.05F
BRECKENRIDGE   CLOUDY    85  55  35 SE7       30.07R
GRAHAM         PTCLDY    77  64  63 E5        30.06R
MINERAL WELLS  PTCLDY    76  66  71 SE8       30.06R
STEPHENVILLE   MOCLDY    79  59  50 SE6       30.11S
COMANCHE       CLOUDY    79  58  48 SE7       30.08S
BROWNWOOD      CLOUDY    82  57  42 E7        30.08R
COLEMAN        CLOUDY    83  61  47 E6        30.10R
BRADY          CLEAR     79  66  65 E8        30.09R
$$

TXZ143>147-156>162-174-175-300400-
CENTRAL TEXAS

CITY           SKY/WX    TMP DP  RH WIND       PRES   REMARKS
WACO           PTCLDY    77  57  50 CALM      30.06R
WACO-TSTC      CLEAR     75  61  60 CALM      30.05R
WACO-MCGREGOR  PTCLDY    81  59  47 E3        30.08R
HILLSBORO      MOCLDY    76  62  61 E5        30.07R
CORSICANA      MOCLDY    78  68  71 NE6       30.07S
MEXIA          PTCLDY    76  72  87 CALM      30.05S
HEARNE         PTCLDY   N/A N/A N/A CALM      30.04R
CAMERON        CLEAR     80  73  76 CALM      30.05R
TEMPLE         MOCLDY    81  64  57 E6        30.06S
KILLEEN        PTCLDY    82  68  61 E8        30.07R
KILLEEN-SKYLRK MOCLDY    82  66  57 E7        30.06S
FORT HOOD      MOCLDY    83  69  62 E3        30.06S
GATESVILLE     PTCLDY    82  61  47 E5        30.08S
HAMILTON       MOCLDY    79  56  46 E10       30.09R
LAMPASAS       CLOUDY    78  72  81 CALM      30.07R
$$

TXZ095>097-106>112-122>126-135>138-148>153-164>167-300400-
EAST TEXAS

CITY           SKY/WX    TMP DP  RH WIND       PRES   REMARKS
PARIS          PTCLDY    79  63  57 SE7       30.07R
SULPHUR SPRNGS CLEAR     81  65  58 SE5       30.09R
CLARKSVILLE    CLEAR     80  66  63 CALM      30.07R
MOUNT PLEASANT CLEAR     77  68  72 CALM      30.07S
GILMER         CLEAR     79  70  73 CALM      30.08R
MINEOLA        CLEAR     77  70  78 CALM      30.07R
TYLER          PTCLDY    82  69  64 CALM      30.06R
LONGVIEW       CLEAR     78  68  71 CALM      30.06R
MARSHALL       CLEAR     81  68  64 CALM      30.08S
ATHENS         MOCLDY    75  72  88 CALM      30.06R
JACKSONVILLE   CLOUDY    81  71  71 CALM      30.08S
HENDERSON      PTCLDY    76  72  87 CALM      30.07S
NACOGDOCHES    MOCLDY    75  73  94 CALM      30.06R
LUFKIN         PTCLDY    79  73  82 CALM      30.05R
$$

SUPPLEMENTAL OBSERVATIONS (CENTRAL)

CITY           SKY/WX    TMP DP  RH WIND       PRES   REMARKS
$$

SUPPLEMENTAL OBSERVATIONS (WEST)

CITY           SKY/WX    TMP DP  RH WIND       PRES   REMARKS
$$

SUPPLEMENTAL OBSERVATIONS (EAST)

CITY           SKY/WX    TMP DP  RH WIND       PRES   REMARKS
$$

SUPPLEMENTAL OBSERVATIONS ARE A COLLECTION OF AUTOMATED INSTRUMENTS
THAT ARE MAINTAINED BY A VARIETY OF FEDERAL AND STATE AGENCIES.
CERTAIN ELEMENTS...SUCH AS HUMIDITY VALUES AND SUSTAINED WIND
SPEEDS...MAY BE APPROXIMATED.



USA.gov is the U.S. government's official web portal to all federal, state and local government web resources and services.